Arlington Reef Observation History
Time Wind Speed Temp Pressure Rel. Hum Rain
14/10:30am S 15-18 kts n/a 1013.0 hPa n/a n/a
14/10:00am S 14-17 kts n/a 1013.2 hPa n/a n/a
14/09:30am S 15-17 kts n/a 1012.9 hPa n/a n/a
14/09:00am S 14-17 kts n/a 1012.7 hPa n/a n/a
14/08:30am S 14-16 kts n/a 1012.4 hPa n/a n/a
14/08:00am S 14-16 kts n/a 1012.1 hPa n/a n/a
14/07:30am S 14-16 kts n/a 1011.8 hPa n/a n/a
14/07:00am S 13-15 kts n/a 1011.5 hPa n/a n/a
14/06:30am S 13-15 kts n/a 1011.1 hPa n/a n/a
14/06:00am S 12-15 kts n/a 1010.8 hPa n/a n/a
14/05:30am S 14-18 kts n/a 1010.6 hPa n/a n/a
14/05:00am SSE 13-16 kts n/a 1010.2 hPa n/a n/a
14/04:30am SSE 13-15 kts n/a 1010.1 hPa n/a n/a
14/04:00am SSE 14-16 kts n/a 1010.1 hPa n/a n/a
14/03:30am SSE 14-16 kts n/a 1010.0 hPa n/a n/a
14/03:00am SSE 13-15 kts n/a 1010.0 hPa n/a n/a
14/02:30am SSE 14-17 kts n/a 1010.3 hPa n/a n/a
14/02:00am SSE 14-16 kts n/a 1010.6 hPa n/a n/a
14/01:30am SSE 13-15 kts n/a 1010.8 hPa n/a n/a
14/01:00am SSE 12-14 kts n/a 1010.9 hPa n/a n/a
14/12:30am SSE 11-14 kts n/a 1010.9 hPa n/a n/a
14/12:00am SSE 11-13 kts n/a 1011.2 hPa n/a n/a
Time Wind Speed Temp Pressure Rel. Hum Rain
13/11:30pm SSE 12-13 kts n/a 1011.2 hPa n/a n/a
13/11:00pm SSE 11-13 kts n/a 1011.6 hPa n/a n/a
13/10:30pm SSE 13-15 kts n/a 1011.6 hPa n/a n/a
13/10:00pm SSE 14-16 kts n/a 1011.4 hPa n/a n/a
13/09:30pm SE 13-15 kts n/a 1011.5 hPa n/a n/a
13/09:00pm SSE 13-15 kts n/a 1011.5 hPa n/a n/a
13/08:30pm SSE 13-15 kts n/a 1011.5 hPa n/a n/a
13/08:00pm SE 14-16 kts n/a 1011.2 hPa n/a n/a
13/07:30pm SSE 15-16 kts n/a 1011.0 hPa n/a n/a
13/07:00pm SSE 15-17 kts n/a 1010.7 hPa n/a n/a
13/06:30pm SE 15-17 kts n/a 1010.5 hPa n/a n/a
13/06:00pm SSE 14-16 kts n/a 1010.5 hPa n/a n/a
13/05:30pm SSE 15-18 kts n/a 1010.0 hPa n/a n/a
13/05:00pm SSE 15-19 kts n/a 1010.0 hPa n/a n/a
13/04:30pm SSE 17-19 kts n/a 1009.8 hPa n/a n/a
13/04:00pm SSE 16-18 kts n/a 1009.6 hPa n/a n/a
13/03:30pm SSE 16-18 kts n/a 1009.6 hPa n/a n/a
13/03:00pm S 17-19 kts n/a 1009.7 hPa n/a n/a
13/02:30pm S 17-20 kts n/a 1009.8 hPa n/a n/a
13/02:00pm S 15-17 kts n/a 1010.1 hPa n/a n/a
13/01:30pm S 16-18 kts n/a 1010.5 hPa n/a n/a
13/01:00pm S 15-17 kts n/a 1010.9 hPa n/a n/a
13/12:30pm S 14-17 kts n/a 1011.3 hPa n/a n/a
13/12:00pm S 15-17 kts n/a 1011.6 hPa n/a n/a
13/11:30am S 16-18 kts n/a 1012.0 hPa n/a n/a
13/11:00am S 14-17 kts n/a 1012.1 hPa n/a n/a
13/10:30am S 14-16 kts n/a 1012.3 hPa n/a n/a
13/10:00am S 13-15 kts n/a 1012.4 hPa n/a n/a
13/09:30am S 14-16 kts n/a 1012.4 hPa n/a n/a
13/09:00am S 14-16 kts n/a 1012.2 hPa n/a n/a
13/08:30am S 14-16 kts n/a 1012.0 hPa n/a n/a
13/08:00am S 13-15 kts n/a 1011.8 hPa n/a n/a
13/07:30am S 13-15 kts n/a 1011.7 hPa n/a n/a
13/07:00am S 12-15 kts n/a 1011.5 hPa n/a n/a
13/06:30am S 11-13 kts n/a 1011.0 hPa n/a n/a
13/06:00am S 11-13 kts n/a 1010.8 hPa n/a n/a
13/05:30am S 10-13 kts n/a 1010.6 hPa n/a n/a
13/05:00am S 10-12 kts n/a 1010.5 hPa n/a n/a
13/04:30am S 11-13 kts n/a 1010.4 hPa n/a n/a
13/04:00am S 10-12 kts n/a 1010.5 hPa n/a n/a
13/03:30am S 9-11 kts n/a 1010.5 hPa n/a n/a
13/03:00am S 11-13 kts n/a 1010.8 hPa n/a n/a
13/02:30am S 11-12 kts n/a 1011.1 hPa n/a n/a
13/02:00am S 11-13 kts n/a 1011.3 hPa n/a n/a
13/01:30am S 11-13 kts n/a 1011.6 hPa n/a n/a
13/01:00am S 12-15 kts n/a 1011.9 hPa n/a n/a
13/12:30am SSE 13-14 kts n/a 1012.2 hPa n/a n/a
13/12:00am SSE 13-14 kts n/a 1012.4 hPa n/a n/a
Time Wind Speed Temp Pressure Rel. Hum Rain
12/11:30pm SSE 14-16 kts n/a 1012.3 hPa n/a n/a
12/11:00pm SSE 14-16 kts n/a 1012.4 hPa n/a n/a
12/10:30pm SSE 14-16 kts n/a 1012.4 hPa n/a n/a
12/10:00pm SSE 15-17 kts n/a 1012.4 hPa n/a n/a
12/09:30pm SSE 15-17 kts n/a 1012.7 hPa n/a n/a
12/09:00pm SSE 16-18 kts n/a 1012.5 hPa n/a n/a
12/08:30pm SSE 15-17 kts n/a 1012.3 hPa n/a n/a
12/08:00pm S 15-17 kts n/a 1012.0 hPa n/a n/a
12/07:30pm SSE 14-16 kts n/a 1011.9 hPa n/a n/a
12/07:00pm SSE 15-17 kts n/a 1011.6 hPa n/a n/a
12/06:30pm SSE 15-17 kts n/a 1011.4 hPa n/a n/a
12/06:00pm SE 13-15 kts n/a 1011.4 hPa n/a n/a
12/05:30pm SE 16-19 kts n/a 1011.3 hPa n/a n/a
12/05:00pm SSE 18-20 kts n/a 1011.0 hPa n/a n/a
12/04:30pm SSE 17-19 kts n/a 1010.8 hPa n/a n/a
12/04:00pm SSE 17-19 kts n/a 1010.8 hPa n/a n/a
12/03:30pm SSE 16-18 kts n/a 1011.0 hPa n/a n/a
12/03:00pm SSE 17-19 kts n/a 1011.0 hPa n/a n/a
12/02:30pm SSE 18-20 kts n/a 1010.9 hPa n/a n/a
12/02:00pm SSE 17-19 kts n/a 1011.3 hPa n/a n/a
12/01:30pm S 16-19 kts n/a 1011.3 hPa n/a n/a
12/01:00pm S 16-18 kts n/a 1011.9 hPa n/a n/a
12/12:30pm S 16-18 kts n/a 1012.1 hPa n/a n/a
12/12:00pm S 16-19 kts n/a 1012.6 hPa n/a n/a
12/11:30am S 16-18 kts n/a 1013.0 hPa n/a n/a
12/11:00am S 15-17 kts n/a 1013.4 hPa n/a n/a
12/10:30am S 15-17 kts n/a 1013.8 hPa n/a n/a
12/10:00am S 15-17 kts n/a 1013.9 hPa n/a n/a
12/09:30am S 15-17 kts n/a 1013.9 hPa n/a n/a
12/09:00am S 16-18 kts n/a 1013.6 hPa n/a n/a
12/08:30am S 15-17 kts n/a 1013.3 hPa n/a n/a
12/08:00am S 15-16 kts n/a 1013.1 hPa n/a n/a
12/07:30am S 15-17 kts n/a 1012.7 hPa n/a n/a
12/07:00am S 12-14 kts n/a 1012.5 hPa n/a n/a
12/06:30am S 14-16 kts n/a 1012.1 hPa n/a n/a
12/06:00am S 14-16 kts n/a 1011.8 hPa n/a n/a
12/05:30am S 14-16 kts n/a 1011.5 hPa n/a n/a
12/05:00am S 14-16 kts n/a 1011.7 hPa n/a n/a
12/04:30am SSW 12-16 kts n/a 1011.6 hPa n/a n/a
12/04:00am S 12-14 kts n/a 1011.9 hPa n/a n/a
12/03:30am SSW 8-13 kts n/a 1011.9 hPa n/a n/a
12/03:00am SSE 12-18 kts n/a 1011.8 hPa n/a n/a
12/02:30am S 12-15 kts n/a 1011.9 hPa n/a n/a
12/02:00am S 14-17 kts n/a 1012.0 hPa n/a n/a
12/01:30am S 14-16 kts n/a 1012.3 hPa n/a n/a
12/01:00am S 13-15 kts n/a 1012.4 hPa n/a n/a
12/12:30am S 13-15 kts n/a 1012.7 hPa n/a n/a
12/12:00am S 13-16 kts n/a 1013.0 hPa n/a n/a